• In Belarus
  • List of Countries
  • For 7 days
  • Water Temperature
  • Satellite Maps
  • Weather Map
  • Weather Widgets
  • user-avatar
    Login

    Hourly Weather Duesseldorf

    Today, 20 September, Thursday

    Time Temperature Precipitation Wind Pressure Humidity
    00:00 +19°C° 0 mm 2 mps 761 mmHg 77%
    01:00 +18°C° 0 mm 2 mps 760 mmHg 78%
    02:00 +18°C° 0 mm 2 mps 760 mmHg 79%
    03:00 +18°C° 0 mm 2 mps 760 mmHg 80%
    04:00 +18°C° 0 mm 2 mps 760 mmHg 80%
    05:00 +18°C° 0 mm 3 mps 760 mmHg 80%
    06:00 +17°C° 0 mm 3 mps 760 mmHg 80%
    07:00 +19°C° 0 mm 3 mps 760 mmHg 73%
    08:00 +21°C° 0 mm 4 mps 760 mmHg 67%
    09:00 +23°C° 0 mm 5 mps 760 mmHg 60%
    10:00 +25°C° 0 mm 5 mps 760 mmHg 56%
    11:00 +26°C° 0 mm 5 mps 759 mmHg 52%
    12:00 +27°C° 0 mm 5 mps 759 mmHg 48%
    13:00 +27°C° 0 mm 5 mps 759 mmHg 47%
    14:00 +27°C° 0 mm 5 mps 758 mmHg 47%
    15:00 +27°C° 0 mm 4 mps 758 mmHg 46%
    16:00 +26°C° 0 mm 4 mps 758 mmHg 51%
    17:00 +25°C° 0 mm 3 mps 757 mmHg 56%
    18:00 +22°C° 0 mm 3 mps 757 mmHg 60%
    19:00 +22°C° 0 mm 3 mps 756 mmHg 62%
    20:00 +21°C° 0 mm 3 mps 756 mmHg 63%
    21:00 +21°C° 0 mm 4 mps 756 mmHg 65%
    22:00 +21°C° 0 mm 4 mps 755 mmHg 64%
    23:00 +21°C° 0 mm 4 mps 754 mmHg 63%

    Tomorrow, 21 September, Friday

    Time Temperature Precipitation Wind Pressure Humidity
    00:00 +21°C° 0 mm 4 mps 754 mmHg 62%
    01:00 +21°C° 0 mm 5 mps 753 mmHg 60%
    02:00 +22°C° 0 mm 5 mps 752 mmHg 57%
    03:00 +22°C° 0 mm 5 mps 752 mmHg 55%
    04:00 +22°C° 0 mm 6 mps 751 mmHg 56%
    05:00 +22°C° 0 mm 6 mps 751 mmHg 56%
    06:00 +22°C° 0 mm 7 mps 750 mmHg 56%
    07:00 +21°C° 0.5 mm 7 mps 751 mmHg 62%
    08:00 +18°C° 0.5 mm 7 mps 752 mmHg 68%
    09:00 +17°C° 0.5 mm 7 mps 753 mmHg 74%
    10:00 +17°C° 0.1 mm 7 mps 754 mmHg 66%
    11:00 +17°C° 0.1 mm 7 mps 755 mmHg 58%
    12:00 +17°C° 0.1 mm 7 mps 755 mmHg 50%
    13:00 +17°C° 0 mm 7 mps 756 mmHg 45%
    14:00 +18°C° 0 mm 7 mps 756 mmHg 40%
    15:00 +18°C° 0 mm 7 mps 757 mmHg 35%
    16:00 +17°C° 0 mm 6 mps 757 mmHg 39%
    17:00 +16°C° 0 mm 6 mps 758 mmHg 43%
    18:00 +15°C° 0 mm 5 mps 758 mmHg 48%
    19:00 +14°C° 0 mm 5 mps 759 mmHg 51%
    20:00 +14°C° 0 mm 5 mps 760 mmHg 53%
    21:00 +14°C° 0 mm 5 mps 760 mmHg 56%
    22:00 +13°C° 0 mm 5 mps 760 mmHg 59%
    23:00 +13°C° 0 mm 5 mps 760 mmHg 61%

    Day after tomorrow, 22 September, Saturday

    Time Temperature Precipitation Wind Pressure Humidity
    00:00 +13°C° 0 mm 5 mps 761 mmHg 63%
    01:00 +12°C° 0 mm 5 mps 761 mmHg 64%
    02:00 +12°C° 0 mm 4 mps 761 mmHg 66%
    03:00 +12°C° 0 mm 4 mps 761 mmHg 68%
    04:00 +12°C° 0 mm 4 mps 762 mmHg 68%
    05:00 +12°C° 0 mm 4 mps 762 mmHg 69%
    06:00 +12°C° 0 mm 4 mps 762 mmHg 69%
    07:00 +13°C° 0 mm 4 mps 762 mmHg 64%
    08:00 +14°C° 0 mm 5 mps 763 mmHg 60%
    09:00 +15°C° 0 mm 5 mps 763 mmHg 55%
    10:00 +16°C° 0 mm 5 mps 763 mmHg 52%
    11:00 +16°C° 0 mm 5 mps 763 mmHg 48%
    12:00 +17°C° 0 mm 6 mps 763 mmHg 45%
    13:00 +17°C° 0 mm 5 mps 763 mmHg 45%
    14:00 +17°C° 0 mm 5 mps 762 mmHg 45%
    15:00 +17°C° 0 mm 5 mps 762 mmHg 45%
    16:00 +17°C° 0 mm 4 mps 763 mmHg 48%
    17:00 +16°C° 0 mm 3 mps 763 mmHg 51%
    18:00 +15°C° 0 mm 2 mps 763 mmHg 55%
    19:00 +15°C° 0 mm 2 mps 763 mmHg 58%
    20:00 +14°C° 0 mm 2 mps 763 mmHg 61%
    21:00 +14°C° 0 mm 1 mps 763 mmHg 64%
    22:00 +14°C° 0 mm 1 mps 763 mmHg 65%
    23:00 +14°C° 0 mm 1 mps 762 mmHg 66%

    23 September, Sunday

    Time Temperature Precipitation Wind Pressure Humidity
    00:00 +14°C° 0 mm 1 mps 762 mmHg 67%
    01:00 +13°C° 0.9 mm 1 mps 762 mmHg 72%
    02:00 +13°C° 0.9 mm 2 mps 761 mmHg 78%
    03:00 +12°C° 0.9 mm 2 mps 761 mmHg 83%
    04:00 +12°C° 0.3 mm 3 mps 760 mmHg 84%
    05:00 +12°C° 0.3 mm 3 mps 758 mmHg 84%
    06:00 +12°C° 0.3 mm 4 mps 757 mmHg 85%
    07:00 +12°C° 1.3 mm 4 mps 756 mmHg 85%
    08:00 +13°C° 1.3 mm 4 mps 755 mmHg 86%
    09:00 +13°C° 1.3 mm 5 mps 753 mmHg 86%
    10:00 +15°C° 1.5 mm 6 mps 752 mmHg 87%
    11:00 +17°C° 1.5 mm 7 mps 751 mmHg 88%
    12:00 +20°C° 1.5 mm 7 mps 749 mmHg 89%
    13:00 +20°C° 1.2 mm 7 mps 748 mmHg 87%
    14:00 +20°C° 1.2 mm 7 mps 747 mmHg 85%
    15:00 +21°C° 1.2 mm 7 mps 745 mmHg 84%
    16:00 +20°C° 0.9 mm 8 mps 744 mmHg 81%
    17:00 +19°C° 0.9 mm 9 mps 742 mmHg 78%
    18:00 +19°C° 0.9 mm 9 mps 741 mmHg 75%
    19:00 +17°C° 0.4 mm 9 mps 740 mmHg 74%
    20:00 +15°C° 0.4 mm 9 mps 740 mmHg 74%
    21:00 +13°C° 0.4 mm 9 mps 740 mmHg 73%
    22:00 +12°C° 0.5 mm 10 mps 742 mmHg 74%
    23:00 +12°C° 0.5 mm 12 mps 745 mmHg 75%

    24 September, Monday

    Time Temperature Precipitation Wind Pressure Humidity
    00:00 +10°C° 0.5 mm 13 mps 748 mmHg 76%
    01:00 +11°C° 0.1 mm 11 mps 751 mmHg 73%
    02:00 +11°C° 0.1 mm 9 mps 754 mmHg 71%
    03:00 +10°C° 0.1 mm 8 mps 757 mmHg 68%
    04:00 +10°C° 0.1 mm 7 mps 759 mmHg 69%
    05:00 +10°C° 0.1 mm 7 mps 760 mmHg 69%
    06:00 +10°C° 0.1 mm 6 mps 761 mmHg 69%
    07:00 +11°C° 0.1 mm 7 mps 763 mmHg 66%
    08:00 +11°C° 0.1 mm 7 mps 764 mmHg 62%
    09:00 +12°C° 0.1 mm 7 mps 765 mmHg 58%
    10:00 +12°C° 0.2 mm 7 mps 766 mmHg 57%
    11:00 +14°C° 0.2 mm 7 mps 766 mmHg 55%
    12:00 +14°C° 0.2 mm 7 mps 767 mmHg 54%
    13:00 +14°C° 0.1 mm 7 mps 768 mmHg 53%
    14:00 +14°C° 0.1 mm 7 mps 768 mmHg 51%
    15:00 +14°C° 0.1 mm 6 mps 768 mmHg 49%
    16:00 +13°C° 0 mm 6 mps 769 mmHg 54%
    17:00 +12°C° 0 mm 5 mps 769 mmHg 59%
    18:00 +11°C° 0 mm 4 mps 770 mmHg 64%
    19:00 +10°C° 0 mm 3 mps 771 mmHg 67%
    20:00 +10°C° 0 mm 3 mps 771 mmHg 69%
    21:00 +9°C° 0 mm 3 mps 772 mmHg 72%
    22:00 +9°C° 0 mm 3 mps 772 mmHg 74%
    23:00 +9°C° 0 mm 3 mps 772 mmHg 77%

    25 September, Tuesday

    Time Temperature Precipitation Wind Pressure Humidity
    00:00 +9°C° 0 mm 3 mps 772 mmHg 79%
    01:00 +9°C° 0 mm 3 mps 772 mmHg 79%
    02:00 +9°C° 0 mm 3 mps 772 mmHg 79%
    03:00 +8°C° 0 mm 4 mps 772 mmHg 80%
    04:00 +9°C° 0 mm 3 mps 772 mmHg 81%
    05:00 +9°C° 0 mm 3 mps 772 mmHg 83%
    06:00 +9°C° 0 mm 3 mps 773 mmHg 84%
    07:00 +11°C° 0 mm 3 mps 773 mmHg 79%
    08:00 +12°C° 0 mm 3 mps 773 mmHg 73%
    09:00 +14°C° 0 mm 3 mps 773 mmHg 68%
    10:00 +16°C° 0 mm 3 mps 773 mmHg 64%
    11:00 +17°C° 0 mm 3 mps 773 mmHg 60%
    12:00 +18°C° 0 mm 3 mps 773 mmHg 55%
    13:00 +18°C° 0 mm 3 mps 773 mmHg 55%
    14:00 +18°C° 0 mm 3 mps 772 mmHg 54%
    15:00 +18°C° 0 mm 3 mps 772 mmHg 54%
    16:00 +17°C° 0 mm 2 mps 772 mmHg 60%
    17:00 +16°C° 0 mm 2 mps 772 mmHg 65%
    18:00 +14°C° 0 mm 1 mps 772 mmHg 71%
    19:00 +14°C° 0 mm 1 mps 772 mmHg 74%
    20:00 +13°C° 0 mm 1 mps 772 mmHg 77%
    21:00 +11°C° 0 mm 0 mps 773 mmHg 80%
    22:00 +11°C° 0 mm 0 mps 772 mmHg 82%
    23:00 +11°C° 0 mm 0 mps 772 mmHg 83%
    Show more